Starlink 34553

operational
NORAD ID: 64681 Int'l Des: 2025-139 Owner: SPXS Country: US Constellation: starlink
LEOCIRCULAR

About Starlink 34553

Description loading...

Live Position

Loading 3D Globe...

Upcoming Passes

Altitude History

Altitude vs Time

uPlot chart will show altitude changes over time

Two-Line Element Set

1 64681U 25139T 26095.17912494 .00001635 00000-0 67361-4 0 9996
2 64681 53.1593 3.7216 0000991 21.4294 338.6748 15.30173412 44344
Epoch: Apr 5, 2026 • Age: 8 hours

Current Status

Altitude 488.1 km
Velocity 7.62 km/s
Sub-Earth Point -39.61°S, 48.24°W
Launch Date Jun 28, 2025
Age 0.7 years
Type internet

Technical Details

Classification Payload
Mass 575.00 kg
Dry Mass 530.00 kg
Total Mass 575.00 kg
Length 0.30 m
Diameter 4.10 m
Span 29.00 m
Shape Box + pan
Manufacturer SPXS
Bus Type Starlink V2MO
Phase Status In Orbit
Owner/State SPXS/US

Large Constellations

Loading constellations...